TimeEDT,TemperatureF,Dew PointF,Humidity,Sea Level PressureIn,VisibilityMPH,Wind Direction,Wind SpeedMPH,Gust SpeedMPH,PrecipitationIn,Events,Conditions,WindDirDegrees,DateUTC
12:53 AM,44.1,44.1,100,30.17,10.0,Calm,Calm,-,N/A,,Clear,0,2013-09-06 04:53:00
1:53 AM,43.0,43.0,100,30.18,10.0,Calm,Calm,-,N/A,,Clear,0,2013-09-06 05:53:00
2:53 AM,39.9,39.9,100,30.19,10.0,Calm,Calm,-,N/A,,Scattered Clouds,0,2013-09-06 06:53:00
3:40 AM,42.8,42.8,100,30.20,10.0,Calm,Calm,-,N/A,,Mostly Cloudy,0,2013-09-06 07:40:00
3:53 AM,42.1,42.1,100,30.20,10.0,Calm,Calm,-,N/A,,Mostly Cloudy,0,2013-09-06 07:53:00
4:06 AM,39.2,39.2,100,30.21,10.0,Calm,Calm,-,N/A,,Scattered Clouds,0,2013-09-06 08:06:00
4:22 AM,41.0,41.0,100,30.22,10.0,Calm,Calm,-,N/A,,Mostly Cloudy,0,2013-09-06 08:22:00
4:53 AM,39.0,39.0,100,30.22,1.5,South,3.5,-,N/A,,Mostly Cloudy,170,2013-09-06 08:53:00
4:56 AM,39.2,39.2,100,30.22,0.8,SSE,4.6,-,N/A,,Mist,160,2013-09-06 08:56:00
5:31 AM,41.0,41.0,100,30.23,0.2,Calm,Calm,-,N/A,Fog,Fog,0,2013-09-06 09:31:00
5:38 AM,41.0,41.0,100,30.23,0.2,Calm,Calm,-,N/A,Fog,Fog,0,2013-09-06 09:38:00
5:53 AM,41.0,41.0,100,30.23,0.2,Calm,Calm,-,N/A,Fog,Fog,0,2013-09-06 09:53:00
6:01 AM,41.0,41.0,100,30.23,0.8,Calm,Calm,-,N/A,,Mist,0,2013-09-06 10:01:00
6:35 AM,42.8,42.8,100,30.24,0.2,Calm,Calm,-,N/A,Fog,Fog,0,2013-09-06 10:35:00
6:53 AM,42.1,42.1,100,30.25,0.2,South,3.5,-,N/A,Fog,Fog,170,2013-09-06 10:53:00
7:51 AM,42.8,42.8,100,30.25,0.5,Calm,Calm,-,N/A,Fog,Fog,0,2013-09-06 11:51:00
7:53 AM,42.1,42.1,100,30.26,0.5,Calm,Calm,-,N/A,Fog,Fog,0,2013-09-06 11:53:00
8:03 AM,42.8,42.8,100,30.26,0.8,Calm,Calm,-,N/A,,Overcast,0,2013-09-06 12:03:00
8:13 AM,42.8,42.8,100,30.26,1.5,Calm,Calm,-,N/A,,Overcast,0,2013-09-06 12:13:00
8:16 AM,42.8,42.8,100,30.26,3.0,Calm,Calm,-,N/A,,Overcast,0,2013-09-06 12:16:00
8:53 AM,44.1,43.0,96,30.27,10.0,Calm,Calm,-,N/A,,Mostly Cloudy,0,2013-09-06 12:53:00
9:00 AM,46.4,44.6,93,30.26,10.0,Calm,Calm,-,N/A,,Scattered Clouds,0,2013-09-06 13:00:00
9:53 AM,51.1,42.1,71,30.26,10.0,Calm,Calm,-,N/A,,Clear,0,2013-09-06 13:53:00
10:53 AM,60.1,39.9,47,30.24,10.0,Variable,3.5,-,0.00,Rain,Light Rain,0,2013-09-06 14:53:00
11:53 AM,63.0,36.0,37,30.22,10.0,NNE,5.8,-,0.00,,Clear,30,2013-09-06 15:53:00
12:53 PM,64.9,37.9,37,30.19,10.0,NNE,4.6,-,N/A,,Clear,20,2013-09-06 16:53:00
1:53 PM,66.0,37.0,34,30.17,10.0,Calm,Calm,-,N/A,,Clear,0,2013-09-06 17:53:00
2:53 PM,68.0,39.0,35,30.14,10.0,SSW,5.8,-,N/A,,Clear,210,2013-09-06 18:53:00
3:53 PM,69.1,37.9,32,30.12,10.0,Variable,6.9,-,N/A,,Clear,0,2013-09-06 19:53:00
4:53 PM,69.1,39.9,35,30.12,10.0,WSW,4.6,-,N/A,,Clear,250,2013-09-06 20:53:00
5:53 PM,68.0,41.0,37,30.11,10.0,WSW,5.8,-,N/A,,Clear,240,2013-09-06 21:53:00
6:53 PM,62.1,43.0,50,30.10,10.0,South,5.8,-,N/A,,Clear,190,2013-09-06 22:53:00
7:53 PM,53.1,51.1,93,30.11,10.0,Calm,Calm,-,N/A,,Clear,0,2013-09-06 23:53:00
8:53 PM,53.1,48.0,83,30.10,10.0,Calm,Calm,-,N/A,,Clear,0,2013-09-07 00:53:00
9:53 PM,51.1,51.1,100,30.09,10.0,Calm,Calm,-,N/A,,Clear,0,2013-09-07 01:53:00
10:53 PM,50.0,46.9,89,30.09,10.0,Calm,Calm,-,N/A,,Clear,0,2013-09-07 02:53:00
11:53 PM,48.0,48.0,100,30.08,10.0,Calm,Calm,-,N/A,,Clear,0,2013-09-07 03:53:00